Regional Weather Roundup
Issued by NWS

Home | Current Version | Previous Version | Graphics & Text | Print | Product List | Glossary On
Versions: 1 2 3 4 5 6 7 8 9 10 11 12 13 14 15 16 17 18 19 20 21 22 23 24 25 26 27 28 29 30 31 32 33 34 35 36 37 38 39 40 41 42 43 44 45 46 47 48 49 50
533
ASUS44 KLIX 212001
RWRLA
LOUISIANA WEATHER ROUNDUP
NATIONAL WEATHER SERVICE NEW ORLEANS LA
300 PM CDT SUN SEP 21 2014

NOTE: "FAIR" INDICATES FEW OR NO CLOUDS BELOW 12,000 FEET WITH NO
      SIGNIFICANT WEATHER AND/OR OBSTRUCTIONS TO VISIBILITY.
      SKY/WX - SKY CONDITION AND SIGNIFICANT WEATHER.
      TMP - AIR TEMPERATURE.    DP   - DEWPOINT TEMPERATURE.
      RH  - RELATIVE HUMIDITY.  PRES - PRESSURE.
      HX  - HEAT INDEX.         WCI  - WIND CHILL INDEX.

*  THESE STATIONS ARE NOT NWS OR FAA STATIONS AND ARE NOT UNDER
   NWS QUALITY CONTROL.

LAZ040-048-061>063-065-066-069-212100-
SOUTHEAST LOUISIANA

CITY           SKY/WX    TMP DP  RH WIND       PRES   REMARKS
N.O. AUDUBON     N/A     87  70  56 MISG        N/A
N.O. INTL ARPT MOSUNNY   88  67  49 NE12      29.98F
N.O. LAKEFRONT SUNNY     87  69  54 NE7       29.99F
N.O. DOWNTOWN* MOCLDY    88  66  48 NE6       29.99F
SLIDELL        MOSUNNY   88  65  46 CALM      29.98F
BATON ROUGE    MOSUNNY   90  65  43 NE10      29.99F
BOOTHVILLE     MOSUNNY   86  74  67 E10       29.97F
BELLE CHASSE   MOSUNNY   87  63  44 E14       29.98F
BOGALUSA*        N/A     90  63  40 CALM      30.00F
GALLIANO*      NOT AVBL
NEW ROADS*     FAIR      88  67  49 N8        29.99F
GONZALES*      FAIR      88  66  48 E7        29.98F
HAMMOND*       NOT AVBL
HOUMA*         NOT AVBL
PORT FOURCHON* MOCLDY    84  73  70 NE14      30.00F

$$

LAZ041-044-053-054-212100-
SOUTHWEST LOUISIANA

CITY           SKY/WX    TMP DP  RH WIND       PRES   REMARKS
LAKE CHARLES   SUNNY     90  69  50 NE12      29.99F
LAFAYETTE      MOSUNNY   89  67  47 E7        29.99F
PATTERSON      NOT AVBL
SALT POINT       N/A     90  69  50 MISG      29.97F
NEW IBERIA     SUNNY     90  67  46 NE12      29.99F
CHENAULT AIRPK NOT AVBL

$$

LAZ027-028-212100-
CENTRAL LOUISIANA

CITY           SKY/WX    TMP DP  RH WIND       PRES   REMARKS
FORT POLK      PTSUNNY   86  68  54 NE7       30.01F
ALEXANDRIA INT MOSUNNY   90  68  48 NE8       29.98F
ALEXANDRIA     PTSUNNY   90  70  51 NE5       30.00F HX  95

$$

LAZ001-002-212100-
NORTHWEST LOUISIANA

CITY           SKY/WX    TMP DP  RH WIND       PRES   REMARKS
SHREVEPORT     MOSUNNY   92  63  38 NE7       29.99F
BARKSDALE AFB  MOSUNNY   92  63  37 N7        30.00F
DTN SHREVEPORT MOSUNNY   94  64  37 CALM      30.00F HX  95

$$

LAZ014-016-212100-
NORTHEAST LOUISIANA

CITY           SKY/WX    TMP DP  RH WIND       PRES   REMARKS
MONROE         MOSUNNY   93  64  38 NW7       30.00F
TALLULAH       SUNNY     92  64  39 NE5       29.99F

$$




USA.gov is the U.S. government's official web portal to all federal, state and local government web resources and services.